Regional Weather Roundup
Issued by NWS Lake Charles, LA

Home | Current Version | Previous Version | Text Only | Print | Product List | Glossary On
Versions: 1 2 3 4 5 6 7 8 9 10 11 12 13 14 15 16 17 18 19 20 21 22 23 24 25 26 27 28 29 30 31 32 33 34 35 36 37 38 39 40 41 42 43 44 45 46 47 48 49 50
000
ASUS44 KLCH 272010
RWRLCH
RWRLCH
REGIONAL WEATHER ROUNDUP
NATIONAL WEATHER SERVICE LAKE CHARLES LA
200 PM CST TUE JAN 27 2015

Note: "fair" indicates few or no clouds below 12,000 feet with no
significant weather and/or obstructions to visibility.


ACROSS SOUTHEAST TEXAS

CITY           SKY/WX    TMP DP  RH WIND       PRES   REMARKS
BEAUMONT       SUNNY     77  42  28 CALM      30.10F
BEAUMONT CITY    N/A     75  44  33 N3        30.11S
ORANGE         CLEAR     75  43  31 E5        30.11F
JASPER         SUNNY     75  42  29 CALM      30.13F
$$

ACROSS CENTRAL LOUISIANA

CITY           SKY/WX    TMP DP  RH WIND       PRES   REMARKS
LEESVILLE      SUNNY     75  39  26 VRB5      30.10F
FULLERTON        N/A     78  36  21 VRB5      30.08F
ALEXANDRIA INT SUNNY     74  35  24 CALM      30.09F
ESLER FIELD    SUNNY     76  36  23 N8        30.10F
DERIDDER         N/A     75  38  25 CALM      30.12F
OAKDALE        CLEAR     75  38  26 N8        30.10F
OPELOUSAS        N/A     73  42  32 N6        30.10F
$$

ACROSS SOUTHWEST AND SOUTH CENTRAL LOUISIANA

CITY           SKY/WX    TMP DP  RH WIND       PRES   REMARKS
SULPHUR        CLEAR     76  43  30 N3        30.11F
LAKE CHARLES   SUNNY     74  44  34 E6        30.10F
CHENNAULT INT  NOT AVBL
CAMERON PHI    CLEAR     66  52  59 SW6       30.14S
DEQUINCY         N/A     74  42  31 CALM      30.10F
JENNINGS         N/A     72  42  33 NE3       30.10F
LAFAYETTE      SUNNY     75  41  29 VRB7      30.10F
NEW IBERIA     SUNNY     75  43  31 VRB3      30.10F
ABBEVILLE        N/A     74  42  31 N5        30.10F
PATTERSON      SUNNY     72  45  37 NE7       30.10S
SALT POINT       N/A     60  50  69 VRB3      30.09F
$$

SELECTED SITES ACROSS THE REGION

CITY           SKY/WX    TMP DP  RH WIND       PRES   REMARKS
HOUSTON BUSH   SUNNY     77  42  28 NW6       30.11F
HOUSTON HOBBY  SUNNY     76  41  28 NW7       30.10F
GALVESTON      SUNNY     75  46  35 NW6       30.11F
COLLEGE STAT   SUNNY     77  41  27 CALM      30.13F
CONROE         SUNNY     75  41  29 CALM      30.11F
HUNTSVILLE     SUNNY     75  42  30 VRB5      30.11F
LUFKIN         SUNNY     79  41  25 CALM      30.11F
SHREVEPORT     SUNNY     73  35  25 SW6       30.11F
MONROE         SUNNY     69  39  33 VRB5      30.12F
NATCHEZ MS     SUNNY     68  36  30 N9        30.11S
BATON ROUGE    SUNNY     75  32  20 N7        30.08F
N.O. INTL ARPT MOSUNNY   70  41  34 NW9       30.08F
SLIDELL        SUNNY     76  37  24 VRB6      30.05F
$$

MARINE REPORTS

STATION/POSITION TIME  TEMP    WIND        PRES    VSBY  WAVE
                       AIR SEA DIR/SP/G                  HT/PER
                 (UTC) (F)     (DEG/KT/KT) (MB)    (MI)  (FT/S)
BUOY 30 S HIGH I 2000   58 58  210/  4/  6 1019.6F         1/ 4
SEA RIM ST PARK  2000   63     210/  6/  8 1019.7F
PORT ARTHUR      2000      53   80/  4/  7 1019.6S
SABINE PASS N    2000   71 53  160/  2/  3 1019.5F
TEXAS POINT      NOT AVBL
CALCASIEU PASS   2000   63 56  240/  6/  7   N/A
LK CHARLES BEACH 2000   73 51              1019.3F
MARSH ISLAND     1900   63     310/  3/  5   N/A
FRESH WATER LOCK 2000   64 55  170/  6/  8 1019.4F
AMERADA PASS     2000   62 48  260/  3/  8 1019.2F
$$



USA.gov is the U.S. government's official web portal to all federal, state and local government web resources and services.